Location: Cactus School
(34.5700°N, 118.0931°W)
Time: 08:43:49
(UTC-07:00)

S-56A Canister/Altair - Pass Details

Date: 13 April 2024
Orbit: 638 x 2488 km, 38.9° (Epoch: 29 May)

Event Time Altitude Azimuth Distance (km) Brightness Sun altitude
Rises 17:28:38 0° 206° (SSW) 3,178 11.1 22.6°
Reaches altitude 10° 17:31:04 10° 194° (SSW) 2,408 10.4 22.1°
Maximum altitude 17:35:51 28° 136° (SE) 1,783 9.2 21.2°
Drops below altitude 10° 17:42:15 10° 81° (E) 3,314 10.3 19.8°
Sets 17:46:14 0° 71° (ENE) 4,633 10.9 19.0°
